Regional Weather Roundup
Issued by NWS

Home | Current Version | Previous Version | Text Only | Print | Product List | Glossary On
Versions: 1 2 3 4 5 6 7 8 9 10 11 12 13 14 15 16 17 18 19 20 21 22 23 24 25 26 27 28 29 30 31 32 33 34 35 36 37 38 39 40 41 42 43 44 45 46 47 48 49 50
000
ASUS44 KMEG 300610
RWRTN
TENNESSEE HOURLY STATE WEATHER ROUNDUP
NATIONAL WEATHER SERVICE MEMPHIS TN
100 AM CDT SUN AUG 30 2015

TNZ002-004-019-021-049-052-054-088>092-300700-
WEST TENNESSEE

CITY           SKY/WX    TMP DP  RH WIND       PRES   REMARKS
MEMPHIS INTL   CLOUDY    79  70  74 S10       30.04R
NWS MEMPHIS      N/A     77 N/A N/A MISG        N/A
JACKSON        FAIR      75  68  78 SE6       30.06S
DYERSBURG      FAIR     N/A N/A N/A MISG        N/A
UNION CITY     PTCLDY    75  73  94 SE5       30.04S
PARIS          PTCLDY    72  66  83 CALM      30.08S
LEXINGTON      CLEAR     70  66  88 CALM      30.07S
$$

TNZ008-025-027-028-033-062-065-066-300700-
NORTH MIDDLE TENNESSEE

CITY           SKY/WX    TMP DP  RH WIND       PRES   REMARKS
NASHVILLE      FAIR      70  66  87 SE8       30.10S
CLARKSVILLE    FAIR      72  67  84 S3        30.07F
SMYRNA         FAIR      68  67  96 CALM      30.12R
COOKEVILLE     CLEAR     70  68  94 CALM      30.13S
CROSSVILLE     FAIR      72  63  73 S5        30.17F
$$

TNZ061-075-076-078-094-096-097-300700-
SOUTH MIDDLE TENNESSEE

CITY           SKY/WX    TMP DP  RH WIND       PRES   REMARKS
FAYETTEVILLE   CLEAR     68  66  94 CALM      30.11F
TULLAHOMA      MOCLDY    70  66  88 CALM      30.14S
WINCHESTER     MOCLDY    70  66  88 E5        30.12F
MCMINNVILLE    CLEAR     68  68 100 CALM      30.13F
COLUMBIA       CLEAR     70  70 100 CALM      30.09S
SHELBYVILLE    CLEAR     70  70 100 CALM      30.12F
$$

TNZ017-018-042-046-047-300700-
NORTHEAST TENNESSEE

CITY           SKY/WX    TMP DP  RH WIND       PRES   REMARKS
TRI CITIES     MOCLDY    66  64  93 CALM      30.17S
ELIZABETHTON   CLEAR     64  61  88 NE3       30.18F
$$

TNZ012-013-036-069-073-074-300700-
CENTRAL EAST TENNESSEE

CITY           SKY/WX    TMP DP  RH WIND       PRES   REMARKS
KNOXVILLE      CLOUDY    71  63  75 CALM      30.12F
OAK RIDGE      FAIR      72  66  81 CALM      30.14F
GATLINBURG     CLEAR     70  64  83 CALM      30.13F
MORRISTOWN     CLEAR     70  64  83 CALM      30.15F
$$

TNZ083-085-099-300700-
SOUTHEAST TENNESSEE

CITY           SKY/WX    TMP DP  RH WIND       PRES   REMARKS
CHATTANOOGA    MOCLDY    73  68  84 CALM      30.13S
$$

SKY/WX REPORTED AS FAIR MEANS FEW OR NO CLOUDS BELOW
12 THOUSAND FEET.



USA.gov is the U.S. government's official web portal to all federal, state and local government web resources and services.